Location: Newark
(54.4000°N, 32.4500°E)
Time: 00:48:16
(UTC+00:00)

ISS - Pass Details

Date: 25 January 2020
Orbit: 415 x 422 km, 51.6° (Epoch: 26 February)

Event Time Altitude Azimuth Distance (km) Brightness Sun altitude
Rises 16:36:12 0° 240° (WSW) 2,375 1.2 -20.2°
Reaches altitude 10° 16:38:23 10° 232° (SW) 1,511 -0.1 -20.5°
Enters shadow 16:41:06 36° 184° (S) 690 -2.7 -20.9°
